www.pogodaiklimat.ru

Погода и климат >> Архив погоды >> Корея >> Йонволь


ПОГОДА в Йонволе

  • Прогноз погоды в Йонволе
  • Монитор погоды в Йонволе

АРХИВ ПОГОДЫ в Йонволе

Время (UTC), дата Ветер
(напр.,м/с)
 
Видим.   Явления Облачность Т
(С)
Тd
(С)
f
(%)
Тe
(С)
Тes
(С)
Комфортность P
(гПа)
Po
(гПа)
Тmin
(С)
Tmax
(С)
R
(мм)
R24
(мм)
S
(см)
06 12.06 СЗ 1 20 км 8/0
[]
+25.5 +9.3 36 +26 +33 жарко 1008.0 981.0
09 12.06 СЗ 1 20 км 6/0
[]
+25.7 +11.8 42 +27 +29 жарко 1007.8 980.8
12 12.06 20 км 3/0 2000 м
[]
+20.3 +14.1 68 +22 +22 комфорт 1010.0 982.4 +28.2
15 12.06 штиль 0 20 км ясно +16.9 +14.1 84 +17 +17 1011.2 983.3
18 12.06 11 км ясно +15.0 +14.1 94 1011.8 983.6
21 12.06 штиль 0 7000 м ясно +14.1 +13.6 97 +14 +14 1012.3 984.1
00 13.06 В 1 18 км ясно +21.2 +14.3 65 +24 +37 комфорт 1011.6 984.1 +13.7
03 13.06 С 2 20 км ясно +28.9 +13.1 38 +30 +51 опасность
солнечного
удара
1008.8 982.2
06 13.06 СЗ 1 20 км ясно +28.4 +9.1 30 +28 +46 жарко 1006.6 980.0
09 13.06 З 2 20 км 6/5 2000 м
[]
+28.2 +11.2 35 +29 +31 жарко 1005.9 979.3
12 13.06 В 1 20 км 8/0
[]
+21.3 +12.1 56 +23 +23 комфорт 1008.1 980.7 +31.2
15 13.06 штиль 0 20 км 8/0
[]
+18.3 +12.9 71 +19 +19 1008.9 981.3
18 13.06 штиль 0 20 км 9/0
[]
+15.8 +12.9 83 +16 +16 1008.2 980.2
21 13.06 штиль 0 19 км 10/9
[]
+15.1 +13.1 88 +15 +15 1008.2 980.1
00 14.06 ЮЗ 1 17 км ?/? +18.6 +13.2 71 +20 +27 1006.9 979.4 +14.9
03 14.06 В 1 16 км 8/1
[]
+24.9 +13.4 49 +27 +40 жарко 1005.4 978.4
06 14.06 З 1 10 км ?/? +24.1 +15.3 58 +27 +27 жарко 1003.4 976.6
09 14.06 ЮЗ 1 12 км 9//
[]
+23.8 +15.8 61 +27 +28 жарко 1002.8 975.9
12 14.06 В 1 19 км 8/0
[]
+18.2 +15.0 82 +20 +20 1003.9 976.4
15 14.06 СВ 3 11 км 8/0
[]
+16.2 +14.8 91 +16 +16 1003.6 975.8
18 14.06 штиль 0 7000 м 8/3 1500 м
[]
+15.4 +14.5 94 +15 +15 1001.9 974.0
21 14.06 3200 м н/о +14.7 +14.3 97 +14 +15 1002.0 974.0
00 15.06 З 1 17 км 8/1
[]
+18.8 +14.2 75 +21 +28 комфорт 1001.3 974.0
03 15.06 ЮВ 1 20 км 6/1 2000 м
[]
+26.5 +13.5 45 +29 +44 жарко 998.6 971.9
06 15.06 СВ 3 20 км 9/4 1000 м
[]
+23.2 +13.9 56 +27 +31 душно 996.0 969.2
09 15.06 В 1 12 км 9// 1500 м
[]
+19.2 +18.2 94 +22 +24 комфорт 996.2 969.1
12 15.06 СВ 3 20 км 9/0
[]
+16.8 +16.4 97 +17 +17 999.6 972.0 +27.9 76
15 15.06 штиль 0 7000 м 8/5 200 м
[]
+15.4 +15.0 97 +15 +15 1003.0 975.1
18 15.06 2400 м н/о +15.4 +15.0 97 +16 +16 1003.5 975.6
21 15.06 С 1 2800 м 3/3
[]
+14.7 +14.3 97 +15 +16 1005.5 977.4
00 16.06 З 2 18 км 8/8 200 м
[]
+16.8 +14.6 87 +17 +19 1007.0 979.2 +14.7 0.0
03 16.06 В 2 20 км 5/4 1000 м
[]
+22.6 +15.9 66 +27 +38 душно 1006.7 979.5
06 16.06 ЮЗ 1 20 км 9/1 1500 м
[]
+23.2 +12.1 50 +26 +34 жарко 1006.6 979.5
09 16.06 ЮЗ 1 20 км 4/0
[]
+23.7 +12.6 50 +26 +28 жарко 1006.7 979.7
12 16.06 штиль 0 20 км 10//
[]
+19.5 +15.5 78 +21 +21 комфорт 1009.0 981.3
15 16.06 штиль 0 20 км 9/1 1500 м
[]
+17.4 +16.0 91 +17 +17 1010.6 982.8
18 16.06 штиль 0 19 км 9/9 1000 м
[]
+17.1 +16.1 94 +17 +17 1011.2 983.3
21 16.06 штиль 0 10 км 10/6 600 м
[]
+17.0 +16.3 96 +17 +17 1011.8 983.9
00 17.06 СЗ 1 19 км 9/1 600 м
[]
+19.9 +14.9 73 +23 +29 комфорт 1012.3 984.6
03 17.06 З 1 20 км 4/1 1500 м
[]
+24.3 +12.5 48 +26 +44 жарко 1011.1 984.1
06 17.06 З 1 20 км 3/3 1500 м
[]
+26.1 +13.5 46 +28 +40 жарко 1010.1 983.1
09 17.06 З 2 20 км ясно +24.5 +12.4 47 +26 +29 жарко 1009.9 982.7
12 17.06 штиль 0 20 км 5/0
[]
+19.6 +14.1 71 +21 +21 комфорт 1011.6 983.9 +26.2
15 17.06 штиль 0 13 км 3/0
[]
+16.6 +14.5 87 +16 +16 1012.6 984.6
18 17.06 СЗ 1 8000 м 8/0
[]
+15.8 +14.8 94 +16 +16 1012.1 984.0
21 17.06 5000 м н/о +16.2 +15.5 96 +16 +16 1012.0 984.0
00 18.06 З 3 8000 м ?/? +18.4 +15.2 82 +19 +19 1013.1 985.4 +15.4 0.2
03 18.06 З 1 13 км 5/1
[]
+21.7 +15.5 68 +25 +42 комфорт 1010.6 983.2
06 18.06 ЮЗ 2 20 км 9/9 1000 м
[]
+22.9 +14.4 59 +27 +32 душно 1009.3 982.1 0.5
09 18.06 З 2 11 км 10/6 1000 м
[]
+22.4 +16.4 69 +27 +27 душно 1008.3 981.1
12 18.06 СЗ 2 н/о ?/? +20.5 +18.0 86 +25 +25 комфорт 1009.9 982.3 +24.1 1
15 18.06 СЗ 1 700 м 10/6
[]
+18.9 +18.5 98 +22 +22 комфорт 1009.0 981.5
18 18.06 З 1 700 м 8/0
[]
+18.3 +17.9 98 +20 +20 1008.3 980.7
21 18.06 штиль 0 1000 м 9/9
[]
+18.2 +17.8 98 +19 +19 1008.6 981.0
00 19.06 3300 м 9/9 600 м
[]
+19.2 +18.3 95 1008.7 981.2 +18.1 4
03 19.06 З 1 14 км 8/8 600 м
[]
+23.3 +17.5 70 +29 +34 душно 1007.1 980.0

 

Местоположение метеостанции Йонволь (Корея): широта 37.18 долгота 128.46 высота над уровнем моря 237 м.

В архиве по умолчанию представлена погода в Йонволе за последнюю неделю. Архивные данные за месяц целиком и за предыдущие месяцы, начиная с января 2011 года, Вы можете получить, выбрав интересующий диапазон дат из раскрывающегося списка и нажав кнопку "Ввод!".


*Определитесь, кто Вы:
робот инопланетянин человек

Внимание! Время в таблицах - всемирное. Для получения местного времени необходимо прибавить поправку, которая равна 9 ч.

Смотрите также архив погоды в соседних городах и на ближайших метеорологических станциях:

Погода в Вонджу (Корея) (48 км)
Погода на Перевале Daegwallyeong (Корея) (62 км)
Погода в Донгхэ (Корея) (69 км)
Погода в Андоне (Корея) (71 км)
Погода в Канныне (Корея) (74 км)
Погода в Ульджине (Корея) (87 км)
Погода в Ичхоне (Корея) (87 км)
Погода в Санджу (Корея) (91 км)
Погода в Чунчоне (Корея) (102 км)
Погода в Чхунчхоне (Корея) (103 км)

Пояснения к столбцам:

Ветер - указаны скорость ветра в м/с - средняя за 10 мин, порывы в срок и между сроками (в фигурных скобках) и направление, откуда дует ветер: С - северный, СВ - северо-восточный, В - восточный, ЮВ - юго-восточный, Ю - южный, ЮЗ - юго-западный, З - западный, СЗ - северо-западный.
Видимость - горизонтальная дальность видимости в метрах или километрах. При видимости от 1 до 10 км при отсутствии осадков обычно наблюдается дымка, при ухудшении видимости до 1 км и менее - туман. В сухую погоду видимость может ухудшаться дымом, пылью или мглою.
Явления - указаны атмосферные явления, наблюдавшиеся в срок или в последний час перед сроком; фигурными скобками обозначены явления, наблюдавшиеся между сроками (за 1-3 часа до срока); квадратными скобками обозначены град или гололедные отложения с указанием их диаметра в мм.
Облачность - указаны через наклонную черту общая и нижняя облачность в баллах и высота нижней границы облаков в метрах; квадратными скобками обозначены формы облаков: Ci - перистые, Cs - перисто-слоистые, Cc - перисто-кучевые, Ac - высококучевые, As - высокослоистые, Sc - слоисто-кучевые, Ns - слоисто-дождевые, Cu - кучевые, Cb - кучево-дождевые. Подробнее классификацию облаков см. в Атласе облаков (PDF).
T - Температура воздуха - температура, измеренная на высоте 2 м над землей.
Td - Температура точки росы - температура, при понижении до которой содержащийся в воздухе водяной пар достигнет насыщения.
f - Относительная влажность воздуха - влажноcть воздуха, измеренная на высоте 2 м над землей.
Te - Эффективная температура - температура, которую ощущает одетый по сезону человек в тени. Характеристика душности погоды. При расчете учитывается влияние влажности воздуха и скорости ветра на теплоощущения человека.
Tes - Эффективная температура на солнце - температура, которую ощущает человек, с поправкой на солнечный нагрев. Характеристика знойности погоды. Зависит от высоты солнца над горизонтом, облачности и скорости ветра. Ночью, в пасмурную погоду, а также при ветре 12 м/с и более поправка равна нулю.
P - Атмосферное давление - приведенное к уровню моря атмосферное давление.
Po - Атмосферное давление - измеренное на уровне метеостанции атмосферное давление.
Tmin - Минимальная температура - минимум температуры воздуха на высоте 2 м над землей.
Tmax - Максимальная температура - максимум температуры воздуха на высоте 2 м над землей.
R - Количество осадков - Количество выпавших осадков за период времени, мм. При наведении курсора мыши на число - период времени, за который выпало указанное количество осадков.
R24 - Количество осадков - Количество выпавших осадков за 24 часа, мм.
S - Снежный покров - Высота снежного покрова, см. При наведении курсора мыши на число - состояние снежного покрова и степень покрытия местности в баллах.